Notices

What's New in latest Release from April 7th, 2021:

- Updated Glossary, including Speed of Maximum Gust, and Total Hourly Precipitation

- Updated national and regional climate services offices contacts and prices information

- Addition of station inventory lists for 1981-2010, 1971-2000, and 1961-1990 Normals.

If you haven't already, please take our survey and provide feedback about our website: https://eccc.sondage-survey.ca/f/LanguageSelection.aspx?s=442ca660-fcf1-47c0-95a9-59707d6fd709

Hourly Data Report for November 25, 2018

CARBERRY CS
MANITOBA
Current Station Operator: ECCC - MSC

49°54'20.900" N
99°21'26.800" W
383.50 m
5010547
71170
WZE

Download Data

Hourly Data (November 2018)
Hourly Data Report for November 25, 2018
TIME
LST
Temp Definition
°C
Dew Point Definition
°C
Rel Hum Definition
%
Precip. Amount Definition
mm

Wind Dir Definition
10's deg

Wind Spd Definition
km/h
Visibility Definition
km
Stn Press Definition
kPa
Hmdx Definition


Wind Chill Definition


Weather Definition


00:00 -13.5 -15.9 82 0.0 35 9   97.59   -19 LegendNANA
01:00 -14.6 -16.8 83 0.0 35 9   97.61   -20 LegendNANA
02:00 -16.9 -18.9 85 0.0 32 9   97.64   -23 LegendNANA
03:00 -19.1 -21.1 84 0.0 27 10   97.73   -26 LegendNANA
04:00 -20.1 -21.9 85 0.0 28 11   97.73   -28 LegendNANA
05:00 -19.2 -21.4 83 0.0 29 9   97.80   -26 LegendNANA
06:00 -19.5 -21.6 84 0.0 28 11   97.84   -27 LegendNANA
07:00 -18.8 -21.0 83 0.0 28 9   97.90   -25 LegendNANA
08:00 -19.4 -21.6 83 0.0 30 11   97.92   -27 LegendNANA
09:00 -16.1 -18.7 80 0.0 33 7   97.97   -21 LegendNANA
10:00 -15.4 -18.2 79 0.0 35 6   97.97   -20 LegendNANA
11:00 -14.7 -17.5 79 0.0 36 10   97.99   -21 LegendNANA
12:00 -13.7 -17.0 76 0.0 1 11   97.94   -20 LegendNANA
13:00 -13.4 -16.9 74 0.0 1 9   97.92   -19 LegendNANA
14:00 -13.0 -16.8 73 0.0 34 10   97.93   -19 LegendNANA
15:00 -13.8 -17.3 75 0.0 1 11   97.96   -20 LegendNANA
16:00 -14.2 -17.4 77 0.0 36 7   97.98   -19 LegendNANA
17:00 -15.0 -17.5 81 0.0 35 4   98.00   -18 LegendNANA
18:00 -16.5 -18.9 82 0.0 34 5   98.03   -20 LegendNANA
19:00 -15.4 -18.0 80 0.0 33 8   98.04   -21 LegendNANA
20:00 -15.0 -17.7 80 0.0 34 7   98.06   -20 LegendNANA
21:00 -15.4 -18.2 79 0.0 34 8   98.07   -21 LegendNANA
22:00 -17.9 -20.1 83 0.0 31 8   98.07   -24 LegendNANA
23:00 -20.1 -22.0 85 0.0 32 8   98.10   -26 LegendNANA

Notes on Data Quality.

Legend

  • E = Estimated
  • M = Missing
  • NA = Not Available*
  • [empty] = Indicates an unobserved value
Date modified: